| time (UTC) | temp F | wind direction | speed MPH | gust MPH | rain 1hr in | rain 24hr in | rain mn in | humidity % | barometer mb |
| 20260901234004 | 70 | 121 | 0.0 | 1.0 | 0.00 | 0.00 | 0.00 | 45 | 1014.2 |
| 20260901233504 | 70 | 127 | 1.0 | 2.0 | 0.00 | 0.00 | 0.00 | 45 | 1014.2 |
| 20260901233004 | 70 | 144 | 0.0 | 3.0 | 0.00 | 0.00 | 0.00 | 46 | 1014.2 |
| 20260901232504 | 69 | 156 | 0.0 | 3.0 | 0.00 | 0.00 | 0.00 | 47 | 1014.1 |
| 20260901232003 | 69 | 158 | 1.0 | 3.0 | 0.00 | 0.00 | 0.00 | 49 | 1013.9 |
| 20260901231503 | 69 | 143 | 1.0 | 3.0 | 0.00 | 0.00 | 0.00 | 50 | 1014.0 |
| 20260901225504 | 68 | 153 | 0.0 | 2.0 | 0.00 | 0.00 | 0.00 | 53 | 1014.0 |
| 20260901225004 | 68 | 158 | 0.0 | 0.0 | 0.00 | 0.00 | 0.00 | 53 | 1013.9 |
| 20260901224004 | 68 | 209 | 0.0 | 1.0 | 0.00 | 0.00 | 0.00 | 52 | 1014.2 |
| 20260901223503 | 68 | 182 | 0.0 | 2.0 | 0.00 | 0.00 | 0.00 | 51 | 1014.3 |
| 20260901223004 | 68 | 199 | 0.0 | 2.0 | 0.00 | 0.00 | 0.00 | 51 | 1014.7 |
| 20260901222504 | 68 | 212 | 1.0 | 3.0 | 0.00 | 0.00 | 0.00 | 51 | 1014.8 |
| 20260901221504 | 67 | 211 | 2.0 | 3.0 | 0.00 | 0.00 | 0.00 | 54 | 1015.3 |
| 20260901221003 | 66 | 223 | 1.0 | 3.0 | 0.00 | 0.00 | 0.00 | 56 | 1015.4 |
| 20260901220503 | 66 | 226 | 1.0 | 3.0 | 0.00 | 0.00 | 0.00 | 56 | 1015.5 |
| 20260901215504 | 67 | 216 | 0.0 | 2.0 | 0.00 | 0.00 | 0.00 | 54 | 1015.7 |
| 20260901215004 | 68 | 165 | 0.0 | 1.0 | 0.00 | 0.00 | 0.00 | 52 | 1015.8 |
| 20260901214504 | 68 | 175 | 0.0 | 2.0 | 0.00 | 0.00 | 0.00 | 51 | 1016.1 |
| 20260901214004 | 68 | 222 | 0.0 | 3.0 | 0.00 | 0.00 | 0.00 | 50 | 1016.1 |
| 20260901213503 | 67 | 220 | 0.0 | 3.0 | 0.00 | 0.00 | 0.00 | 51 | 1016.1 |
| 20260901213004 | 67 | 214 | 1.0 | 3.0 | 0.00 | 0.00 | 0.00 | 53 | 1016.2 |
| 20260901212004 | 67 | 218 | 2.0 | 3.0 | 0.00 | 0.00 | 0.00 | 51 | 1016.5 |
| 20260901211504 | 68 | 227 | 2.0 | 5.0 | 0.00 | 0.00 | 0.00 | 48 | 1016.4 |
| 20260901210504 | 68 | 225 | 3.0 | 7.0 | 0.00 | 0.00 | 0.00 | 45 | 1016.6 |
| 20260901210004 | 68 | 237 | 3.0 | 9.0 | 0.00 | 0.00 | 0.00 | 45 | 1016.4 |
| 20260901205504 | 69 | 238 | 3.0 | 10.0 | 0.00 | 0.00 | 0.00 | 43 | 1016.4 |
| 20260901204504 | 72 | 230 | 4.0 | 13.0 | 0.00 | 0.00 | 0.00 | 34 | 1016.5 |
| 20260901204004 | 73 | 231 | 3.0 | 9.0 | 0.00 | 0.00 | 0.00 | 31 | 1016.3 |
| 20260901203504 | 74 | 222 | 5.0 | 12.0 | 0.00 | 0.00 | 0.00 | 30 | 1016.2 |
| 20260901203004 | 75 | 222 | 3.0 | 9.0 | 0.00 | 0.00 | 0.00 | 27 | 1016.1 |
| 20260901202504 | 75 | 197 | 1.0 | 5.0 | 0.00 | 0.00 | 0.00 | 28 | 1015.9 |
| 20260901202004 | 76 | 218 | 2.0 | 7.0 | 0.00 | 0.00 | 0.00 | 25 | 1015.7 |
| 20260901201504 | 76 | 216 | 1.0 | 3.0 | 0.00 | 0.00 | 0.00 | 24 | 1015.6 |
| 20260901201004 | 76 | 214 | 1.0 | 3.0 | 0.00 | 0.00 | 0.00 | 24 | 1015.5 |
| 20260901200504 | 76 | 217 | 1.0 | 3.0 | 0.00 | 0.00 | 0.00 | 24 | 1015.4 |
| 20260901200004 | 76 | 221 | 0.0 | 1.0 | 0.00 | 0.00 | 0.00 | 24 | 1015.3 |
| 20260901195504 | 76 | 237 | 0.0 | 0.0 | 0.00 | 0.00 | 0.00 | 24 | 1015.3 |
| 20260901193503 | 76 | 222 | 0.0 | 2.0 | 0.00 | 0.00 | 0.00 | 24 | 1015.2 |
| 20260901193004 | 76 | 223 | 1.0 | 3.0 | 0.00 | 0.00 | 0.00 | 24 | 1015.2 |
| 20260901192504 | 76 | 231 | 1.0 | 3.0 | 0.00 | 0.00 | 0.00 | 24 | 1015.3 |
| 20260901192004 | 76 | 245 | 1.0 | 3.0 | 0.00 | 0.00 | 0.00 | 24 | 1015.3 |
| 20260901191504 | 77 | 237 | 0.0 | 1.0 | 0.00 | 0.00 | 0.00 | 24 | 1015.4 |
| 20260901191004 | 77 | 233 | 0.0 | 3.0 | 0.00 | 0.00 | 0.00 | 24 | 1015.4 |
| 20260901190504 | 77 | 233 | 1.0 | 3.0 | 0.00 | 0.00 | 0.00 | 23 | 1015.5 |
| 20260901190004 | 77 | 262 | 0.0 | 0.0 | 0.00 | 0.00 | 0.00 | 23 | 1015.3 |
| 20260901185003 | 77 | 221 | 0.0 | 3.0 | 0.00 | 0.00 | 0.00 | 23 | 1015.3 |
| 20260901184504 | 76 | 249 | 0.0 | 3.0 | 0.00 | 0.00 | 0.00 | 24 | 1015.3 |
| 20260901183504 | 77 | 241 | 1.0 | 3.0 | 0.00 | 0.00 | 0.00 | 24 | 1015.3 |
| 20260901183003 | 77 | 251 | 1.0 | 5.0 | 0.00 | 0.00 | 0.00 | 24 | 1015.2 |
| 20260901182504 | 78 | 254 | 1.0 | 3.0 | 0.00 | 0.00 | 0.00 | 24 | 1015.1 |
| 20260901181503 | 78 | 242 | 1.0 | 3.0 | 0.00 | 0.00 | 0.00 | 23 | 1015.0 |
| 20260901181004 | 78 | 228 | 2.0 | 5.0 | 0.00 | 0.00 | 0.00 | 22 | 1015.0 |
| 20260901180504 | 78 | 231 | 2.0 | 6.0 | 0.00 | 0.00 | 0.00 | 21 | 1015.0 |
| 20260901180004 | 78 | 225 | 1.0 | 3.0 | 0.00 | 0.00 | 0.00 | 20 | 1015.0 |
| 20260901175503 | 77 | 220 | 1.0 | 2.0 | 0.00 | 0.00 | 0.00 | 22 | 1014.9 |
| 20260901175004 | 76 | 131 | 0.0 | 0.0 | 0.00 | 0.00 | 0.00 | 22 | 1014.7 |
| 20260901174503 | 76 | 147 | 0.0 | 1.0 | 0.00 | 0.00 | 0.00 | 22 | 1014.7 |
| 20260901174003 | 76 | 143 | 0.0 | 2.0 | 0.00 | 0.00 | 0.00 | 22 | 1014.7 |
| 20260901173504 | 75 | 159 | 0.0 | 2.0 | 0.00 | 0.00 | 0.00 | 23 | 1014.6 |
| 20260901172504 | 76 | 136 | 0.0 | 1.0 | 0.00 | 0.00 | 0.00 | 23 | 1014.6 |
| 20260901171504 | 77 | 118 | 0.0 | 5.0 | 0.00 | 0.00 | 0.00 | 22 | 1014.5 |
| 20260901171004 | 78 | 165 | 0.0 | 2.0 | 0.00 | 0.00 | 0.00 | 22 | 1014.4 |
| 20260901165004 | 74 | 151 | 0.0 | 0.0 | 0.00 | 0.00 | 0.00 | 25 | 1014.3 |
| 20260901164503 | 74 | 124 | 0.0 | 1.0 | 0.00 | 0.00 | 0.00 | 27 | 1014.3 |
| 20260901164004 | 74 | 146 | 0.0 | 2.0 | 0.00 | 0.00 | 0.00 | 26 | 1014.3 |
| 20260901163503 | 74 | 146 | 0.0 | 0.0 | 0.00 | 0.00 | 0.00 | 27 | 1014.3 |
| 20260901163004 | 73 | 148 | 0.0 | 0.0 | 0.00 | 0.00 | 0.00 | 27 | 1014.3 |
| 20260901162504 | 72 | 165 | 0.0 | 1.0 | 0.00 | 0.00 | 0.00 | 28 | 1014.3 |
| 20260901162004 | 71 | 162 | 0.0 | 0.0 | 0.00 | 0.00 | 0.00 | 30 | 1014.3 |
| 20260901161503 | 70 | 155 | 0.0 | 0.0 | 0.00 | 0.00 | 0.00 | 31 | 1014.3 |
| 20260901161004 | 69 | 156 | 0.0 | 1.0 | 0.00 | 0.00 | 0.00 | 32 | 1014.4 |
| 20260901160503 | 69 | 155 | 0.0 | 0.0 | 0.00 | 0.00 | 0.00 | 32 | 1014.4 |
| 20260901160004 | 68 | 141 | 0.0 | 3.0 | 0.00 | 0.00 | 0.00 | 32 | 1014.4 |
| 20260901155504 | 68 | 158 | 0.0 | 1.0 | 0.00 | 0.00 | 0.00 | 32 | 1014.5 |
| 20260901155004 | 67 | 167 | 0.0 | 1.0 | 0.00 | 0.00 | 0.00 | 33 | 1014.5 |
| 20260901154504 | 66 | 153 | 0.0 | 1.0 | 0.00 | 0.00 | 0.00 | 34 | 1014.6 |
| 20260901154004 | 65 | 150 | 0.0 | 1.0 | 0.00 | 0.00 | 0.00 | 35 | 1014.6 |
| 20260901153504 | 65 | 150 | 0.0 | 0.0 | 0.00 | 0.00 | 0.00 | 37 | 1014.7 |
| 20260901153004 | 64 | 163 | 0.0 | 1.0 | 0.00 | 0.00 | 0.00 | 37 | 1014.7 |
| 20260901152504 | 63 | 134 | 0.0 | 2.0 | 0.00 | 0.00 | 0.00 | 38 | 1014.6 |
| 20260901151504 | 62 | 150 | 0.0 | 2.0 | 0.00 | 0.00 | 0.00 | 38 | 1014.6 |
| 20260901151004 | 62 | 141 | 0.0 | 0.0 | 0.00 | 0.00 | 0.00 | 40 | 1014.6 |
| 20260901150504 | 61 | 160 | 0.0 | 2.0 | 0.00 | 0.00 | 0.00 | 41 | 1014.6 |
| 20260901150004 | 61 | 133 | 0.0 | 2.0 | 0.00 | 0.00 | 0.00 | 42 | 1014.6 |
| 20260901145504 | 60 | 150 | 1.0 | 8.0 | 0.00 | 0.00 | 0.00 | 44 | 1014.6 |
| 20260901145004 | 59 | 163 | 0.0 | 2.0 | 0.00 | 0.00 | 0.00 | 45 | 1014.6 |
| 20260901144503 | 58 | 161 | 0.0 | 1.0 | 0.00 | 0.00 | 0.00 | 47 | 1014.6 |
| 20260901144003 | 57 | 167 | 0.0 | 1.0 | 0.00 | 0.00 | 0.00 | 48 | 1014.6 |
| 20260901143504 | 57 | 167 | 0.0 | 1.0 | 0.00 | 0.00 | 0.00 | 49 | 1014.6 |
| 20260901143004 | 57 | 155 | 0.0 | 2.0 | 0.00 | 0.00 | 0.00 | 49 | 1014.7 |
| 20260901142004 | 57 | 149 | 0.0 | 0.0 | 0.00 | 0.00 | 0.00 | 48 | 1014.5 |
| 20260901141504 | 57 | 145 | 0.0 | 0.0 | 0.00 | 0.00 | 0.00 | 48 | 1014.6 |
| 20260901141003 | 57 | 139 | 0.0 | 0.0 | 0.00 | 0.00 | 0.00 | 48 | 1014.6 |
| 20260901140504 | 57 | 148 | 0.0 | 0.0 | 0.00 | 0.00 | 0.00 | 48 | 1014.6 |
| 20260901135004 | 56 | 158 | 0.0 | 0.0 | 0.00 | 0.00 | 0.00 | 48 | 1014.6 |
| 20260901134504 | 56 | 164 | 0.0 | 0.0 | 0.00 | 0.00 | 0.00 | 49 | 1014.8 |
| 20260901134003 | 56 | 148 | 0.0 | 0.0 | 0.00 | 0.00 | 0.00 | 48 | 1014.9 |
| 20260901133504 | 56 | 148 | 0.0 | 0.0 | 0.00 | 0.00 | 0.00 | 48 | 1014.8 |
| 20260901133003 | 56 | 150 | 0.0 | 0.0 | 0.00 | 0.00 | 0.00 | 48 | 1014.9 |
| 20260901132504 | 57 | 150 | 0.0 | 0.0 | 0.00 | 0.00 | 0.00 | 47 | 1014.9 |
| 20260901132004 | 57 | 150 | 0.0 | 0.0 | 0.00 | 0.00 | 0.00 | 47 | 1015.0 |
| 20260901130504 | 58 | 158 | 0.0 | 0.0 | 0.00 | 0.00 | 0.00 | 45 | 1014.9 |
| 20260901130004 | 58 | 159 | 0.0 | 0.0 | 0.00 | 0.00 | 0.00 | 45 | 1015.0 |
| 20260901125503 | 59 | 163 | 0.0 | 0.0 | 0.00 | 0.00 | 0.00 | 44 | 1014.9 |
| 20260901125003 | 59 | 163 | 0.0 | 0.0 | 0.00 | 0.00 | 0.00 | 45 | 1014.9 |
| 20260901124504 | 58 | 163 | 0.0 | 0.0 | 0.00 | 0.00 | 0.00 | 45 | 1014.9 |
| 20260901124004 | 58 | 163 | 0.0 | 0.0 | 0.00 | 0.00 | 0.00 | 46 | 1015.0 |
| 20260901123503 | 57 | 163 | 0.0 | 0.0 | 0.00 | 0.00 | 0.00 | 47 | 1015.1 |
| 20260901123004 | 56 | 163 | 0.0 | 0.0 | 0.00 | 0.00 | 0.00 | 48 | 1015.1 |
| 20260901122503 | 56 | 163 | 0.0 | 0.0 | 0.00 | 0.00 | 0.00 | 48 | 1015.2 |
| 20260901121503 | 57 | 211 | 0.0 | 0.0 | 0.00 | 0.00 | 0.00 | 45 | 1015.2 |
| 20260901121003 | 57 | 233 | 0.0 | 0.0 | 0.00 | 0.00 | 0.00 | 45 | 1015.1 |
| 20260901120504 | 58 | 233 | 0.0 | 0.0 | 0.00 | 0.00 | 0.00 | 45 | 1015.1 |
| 20260901120003 | 58 | 233 | 0.0 | 0.0 | 0.00 | 0.00 | 0.00 | 44 | 1015.1 |
| 20260901115004 | 59 | 233 | 0.0 | 0.0 | 0.00 | 0.00 | 0.00 | 44 | 1015.1 |
| 20260901114504 | 59 | 233 | 0.0 | 0.0 | 0.00 | 0.00 | 0.00 | 43 | 1015.2 |
| 20260901114003 | 59 | 233 | 0.0 | 0.0 | 0.00 | 0.00 | 0.00 | 42 | 1015.2 |
| 20260901113504 | 60 | 233 | 0.0 | 0.0 | 0.00 | 0.00 | 0.00 | 41 | 1015.3 |
| 20260901113004 | 61 | 233 | 0.0 | 0.0 | 0.00 | 0.00 | 0.00 | 41 | 1015.2 |
| 20260901112504 | 60 | 233 | 0.0 | 0.0 | 0.00 | 0.00 | 0.00 | 42 | 1015.2 |
| 20260901112004 | 59 | 233 | 0.0 | 0.0 | 0.00 | 0.00 | 0.00 | 43 | 1015.2 |
| 20260901110004 | 60 | 233 | 0.0 | 0.0 | 0.00 | 0.00 | 0.00 | 43 | 1015.3 |
| 20260901105504 | 60 | 233 | 0.0 | 0.0 | 0.00 | 0.00 | 0.00 | 43 | 1015.3 |
| 20260901105004 | 60 | 234 | 0.0 | 0.0 | 0.00 | 0.00 | 0.00 | 43 | 1015.2 |
| 20260901104504 | 60 | 234 | 0.0 | 0.0 | 0.00 | 0.00 | 0.00 | 43 | 1015.3 |
| 20260901104004 | 60 | 234 | 0.0 | 0.0 | 0.00 | 0.00 | 0.00 | 42 | 1015.2 |
| 20260901103503 | 61 | 234 | 0.0 | 0.0 | 0.00 | 0.00 | 0.00 | 42 | 1015.3 |
| 20260901103004 | 61 | 234 | 0.0 | 0.0 | 0.00 | 0.00 | 0.00 | 42 | 1015.3 |
| 20260901102504 | 61 | 234 | 0.0 | 0.0 | 0.00 | 0.00 | 0.00 | 42 | 1015.4 |
| 20260901101504 | 61 | 234 | 0.0 | 0.0 | 0.00 | 0.00 | 0.00 | 41 | 1015.4 |
| 20260901101004 | 61 | 234 | 0.0 | 0.0 | 0.00 | 0.00 | 0.00 | 41 | 1015.4 |
| 20260901100504 | 61 | 234 | 0.0 | 0.0 | 0.00 | 0.00 | 0.00 | 42 | 1015.4 |
| 20260901100004 | 61 | 234 | 0.0 | 0.0 | 0.00 | 0.00 | 0.00 | 42 | 1015.4 |
| 20260901095503 | 61 | 234 | 0.0 | 0.0 | 0.00 | 0.00 | 0.00 | 42 | 1015.4 |
| 20260901095003 | 61 | 234 | 0.0 | 0.0 | 0.00 | 0.00 | 0.00 | 41 | 1015.4 |
| 20260901094504 | 62 | 234 | 0.0 | 0.0 | 0.00 | 0.00 | 0.00 | 41 | 1015.4 |
| 20260901094003 | 62 | 234 | 0.0 | 0.0 | 0.00 | 0.00 | 0.00 | 41 | 1015.4 |
| 20260901093504 | 62 | 234 | 0.0 | 0.0 | 0.00 | 0.00 | 0.00 | 41 | 1015.4 |
| 20260901093004 | 62 | 234 | 0.0 | 0.0 | 0.00 | 0.00 | 0.00 | 41 | 1015.4 |
| 20260901092503 | 62 | 234 | 0.0 | 0.0 | 0.00 | 0.00 | 0.00 | 41 | 1015.3 |
| 20260901092004 | 61 | 234 | 0.0 | 0.0 | 0.00 | 0.00 | 0.00 | 42 | 1015.4 |
| 20260901091504 | 61 | 234 | 0.0 | 0.0 | 0.00 | 0.00 | 0.00 | 42 | 1015.4 |
| 20260901091004 | 61 | 234 | 0.0 | 0.0 | 0.00 | 0.00 | 0.00 | 42 | 1015.4 |
| 20260901090504 | 61 | 234 | 0.0 | 0.0 | 0.00 | 0.00 | 0.00 | 42 | 1015.4 |
| 20260901090004 | 62 | 234 | 0.0 | 0.0 | 0.00 | 0.00 | 0.00 | 41 | 1015.4 |
| 20260901085505 | 62 | 247 | 0.0 | 0.0 | 0.00 | 0.00 | 0.00 | 41 | 1015.4 |
| 20260901085004 | 62 | 247 | 0.0 | 0.0 | 0.00 | 0.00 | 0.00 | 41 | 1015.5 |
| 20260901084504 | 62 | 248 | 0.0 | 0.0 | 0.00 | 0.00 | 0.00 | 40 | 1015.5 |
| 20260901084004 | 62 | 248 | 0.0 | 0.0 | 0.00 | 0.00 | 0.00 | 41 | 1015.5 |
| 20260901083503 | 62 | 248 | 0.0 | 0.0 | 0.00 | 0.00 | 0.00 | 40 | 1015.5 |
| 20260901083004 | 62 | 248 | 0.0 | 0.0 | 0.00 | 0.00 | 0.00 | 40 | 1015.5 |
| 20260901082504 | 63 | 248 | 0.0 | 0.0 | 0.00 | 0.00 | 0.00 | 40 | 1015.6 |
| 20260901081504 | 62 | 248 | 0.0 | 0.0 | 0.00 | 0.00 | 0.00 | 41 | 1015.6 |
| 20260901081004 | 61 | 248 | 0.0 | 0.0 | 0.00 | 0.00 | 0.00 | 41 | 1015.6 |
| 20260901080504 | 61 | 248 | 0.0 | 0.0 | 0.00 | 0.00 | 0.00 | 40 | 1015.7 |
| 20260901080003 | 62 | 254 | 0.0 | 0.0 | 0.00 | 0.00 | 0.00 | 40 | 1015.8 |
| 20260901075503 | 61 | 254 | 0.0 | 0.0 | 0.00 | 0.00 | 0.00 | 41 | 1015.8 |
| 20260901075004 | 61 | 254 | 0.0 | 0.0 | 0.00 | 0.00 | 0.00 | 41 | 1015.8 |
| 20260901074503 | 61 | 255 | 0.0 | 0.0 | 0.00 | 0.00 | 0.00 | 41 | 1015.8 |
| 20260901073004 | 62 | 313 | 0.0 | 0.0 | 0.00 | 0.00 | 0.00 | 38 | 1015.8 |
| 20260901072504 | 63 | 313 | 0.0 | 0.0 | 0.00 | 0.00 | 0.00 | 38 | 1015.9 |
| 20260901072004 | 63 | 313 | 0.0 | 0.0 | 0.00 | 0.00 | 0.00 | 37 | 1015.9 |
| 20260901071503 | 64 | 313 | 0.0 | 0.0 | 0.00 | 0.00 | 0.00 | 37 | 1015.9 |
| 20260901071005 | 64 | 313 | 0.0 | 0.0 | 0.00 | 0.00 | 0.00 | 37 | 1015.9 |
| 20260901070504 | 63 | 313 | 0.0 | 0.0 | 0.00 | 0.00 | 0.00 | 38 | 1015.9 |
| 20260901070004 | 64 | 313 | 0.0 | 0.0 | 0.00 | 0.00 | 0.00 | 37 | 1016.0 |
| 20260901065503 | 63 | 313 | 0.0 | 0.0 | 0.00 | 0.00 | 0.00 | 37 | 1016.0 |
| 20260901065004 | 64 | 313 | 0.0 | 0.0 | 0.00 | 0.00 | 0.00 | 37 | 1016.0 |
| 20260901064504 | 63 | 313 | 0.0 | 0.0 | 0.00 | 0.00 | 0.00 | 37 | 1016.1 |
| 20260901064004 | 64 | 313 | 0.0 | 0.0 | 0.00 | 0.00 | 0.00 | 36 | 1016.2 |
| 20260901063004 | 64 | 313 | 0.0 | 0.0 | 0.00 | 0.00 | 0.00 | 35 | 1016.1 |
| 20260901062504 | 65 | 313 | 0.0 | 0.0 | 0.00 | 0.00 | 0.00 | 34 | 1016.3 |
| 20260901062003 | 65 | 313 | 0.0 | 0.0 | 0.00 | 0.00 | 0.00 | 35 | 1016.2 |
| 20260901061504 | 66 | 313 | 0.0 | 0.0 | 0.00 | 0.00 | 0.00 | 33 | 1016.3 |
| 20260901061004 | 66 | 313 | 0.0 | 0.0 | 0.00 | 0.00 | 0.00 | 34 | 1016.4 |
| 20260901060503 | 66 | 313 | 0.0 | 0.0 | 0.00 | 0.00 | 0.00 | 33 | 1016.4 |
| 20260901060004 | 67 | 313 | 0.0 | 0.0 | 0.00 | 0.00 | 0.00 | 33 | 1016.5 |
| 20260901055503 | 66 | 313 | 0.0 | 0.0 | 0.00 | 0.00 | 0.00 | 33 | 1016.5 |
| 20260901055003 | 66 | 313 | 0.0 | 0.0 | 0.00 | 0.00 | 0.00 | 33 | 1016.5 |
| 20260901054503 | 67 | 313 | 0.0 | 0.0 | 0.00 | 0.00 | 0.00 | 32 | 1016.5 |
| 20260901054004 | 66 | 313 | 0.0 | 0.0 | 0.00 | 0.00 | 0.00 | 33 | 1016.5 |
| 20260901053504 | 66 | 313 | 0.0 | 0.0 | 0.00 | 0.00 | 0.00 | 32 | 1016.6 |
| 20260901053004 | 66 | 313 | 0.0 | 0.0 | 0.00 | 0.00 | 0.00 | 33 | 1016.6 |
| 20260901052503 | 66 | 313 | 0.0 | 0.0 | 0.00 | 0.00 | 0.00 | 32 | 1016.7 |
| 20260901052004 | 66 | 313 | 0.0 | 0.0 | 0.00 | 0.00 | 0.00 | 32 | 1016.7 |
| 20260901051504 | 67 | 5 | 0.0 | 0.0 | 0.00 | 0.00 | 0.00 | 32 | 1016.7 |
| 20260901051004 | 66 | 18 | 0.0 | 0.0 | 0.00 | 0.00 | 0.00 | 33 | 1016.8 |
| 20260901050503 | 66 | 20 | 0.0 | 0.0 | 0.00 | 0.00 | 0.00 | 32 | 1016.8 |
| 20260901050004 | 67 | 20 | 0.0 | 0.0 | 0.00 | 0.00 | 0.00 | 32 | 1016.8 |
| 20260901045504 | 67 | 20 | 0.0 | 0.0 | 0.00 | 0.00 | 0.00 | 31 | 1016.9 |
| 20260901045003 | 67 | 20 | 0.0 | 0.0 | 0.00 | 0.00 | 0.00 | 31 | 1016.9 |
| 20260901044506 | 67 | 19 | 0.0 | 0.0 | 0.00 | 0.00 | 0.00 | 31 | 1016.9 |
| 20260901044003 | 67 | 19 | 0.0 | 0.0 | 0.00 | 0.00 | 0.00 | 31 | 1016.9 |
| 20260901042504 | 68 | 19 | 0.0 | 0.0 | 0.00 | 0.00 | 0.00 | 31 | 1017.0 |
| 20260901041504 | 69 | 19 | 0.0 | 0.0 | 0.00 | 0.00 | 0.00 | 30 | 1017.0 |
| 20260901041004 | 69 | 19 | 0.0 | 0.0 | 0.00 | 0.00 | 0.00 | 30 | 1017.0 |
| 20260901040503 | 69 | 19 | 0.0 | 0.0 | 0.00 | 0.00 | 0.00 | 29 | 1017.0 |
| 20260901040003 | 69 | 19 | 0.0 | 0.0 | 0.00 | 0.00 | 0.00 | 28 | 1017.0 |
| 20260901035504 | 69 | 19 | 0.0 | 0.0 | 0.00 | 0.00 | 0.00 | 28 | 1017.0 |
| 20260901034504 | 70 | 19 | 0.0 | 0.0 | 0.00 | 0.00 | 0.00 | 27 | 1017.1 |
| 20260901034004 | 70 | 19 | 0.0 | 0.0 | 0.00 | 0.00 | 0.00 | 27 | 1017.1 |
| 20260901033504 | 70 | 19 | 0.0 | 0.0 | 0.00 | 0.00 | 0.00 | 27 | 1017.2 |
| 20260901033004 | 70 | 19 | 0.0 | 0.0 | 0.00 | 0.00 | 0.00 | 27 | 1017.1 |
| 20260901032003 | 70 | 19 | 0.0 | 0.0 | 0.00 | 0.00 | 0.00 | 27 | 1017.1 |
| 20260901031504 | 70 | 19 | 0.0 | 0.0 | 0.00 | 0.00 | 0.00 | 26 | 1017.1 |
| 20260901031004 | 70 | 19 | 0.0 | 0.0 | 0.00 | 0.00 | 0.00 | 26 | 1017.0 |
| 20260901030504 | 70 | 19 | 0.0 | 0.0 | 0.00 | 0.00 | 0.00 | 26 | 1016.9 |
| 20260901030003 | 70 | 19 | 0.0 | 0.0 | 0.00 | 0.00 | 0.00 | 26 | 1016.9 |
| 20260901025504 | 70 | 19 | 0.0 | 0.0 | 0.00 | 0.00 | 0.00 | 26 | 1016.9 |
| 20260901024504 | 71 | 19 | 0.0 | 0.0 | 0.00 | 0.00 | 0.00 | 26 | 1016.8 |
| 20260901023504 | 71 | 19 | 0.0 | 0.0 | 0.00 | 0.00 | 0.00 | 25 | 1016.8 |
| 20260901023003 | 72 | 19 | 0.0 | 0.0 | 0.00 | 0.00 | 0.00 | 25 | 1016.8 |
| 20260901022504 | 72 | 19 | 0.0 | 0.0 | 0.00 | 0.00 | 0.00 | 25 | 1016.8 |
| 20260901022003 | 72 | 5 | 0.0 | 0.0 | 0.00 | 0.00 | 0.00 | 24 | 1016.8 |
| 20260901021003 | 73 | 338 | 0.0 | 0.0 | 0.00 | 0.00 | 0.00 | 24 | 1016.8 |
| 20260901020503 | 73 | 32 | 0.0 | 0.0 | 0.00 | 0.00 | 0.00 | 24 | 1016.9 |
| 20260901020004 | 73 | 33 | 0.0 | 0.0 | 0.00 | 0.00 | 0.00 | 23 | 1016.9 |
| 20260901015004 | 74 | 42 | 0.0 | 0.0 | 0.00 | 0.00 | 0.00 | 23 | 1016.9 |
| 20260901014504 | 75 | 46 | 0.0 | 0.0 | 0.00 | 0.00 | 0.00 | 23 | 1016.9 |
| 20260901014004 | 75 | 46 | 0.0 | 0.0 | 0.00 | 0.00 | 0.00 | 22 | 1016.9 |
| 20260901013503 | 76 | 48 | 0.0 | 0.0 | 0.00 | 0.00 | 0.00 | 23 | 1016.9 |
| 20260901013004 | 76 | 47 | 0.0 | 0.0 | 0.00 | 0.00 | 0.00 | 22 | 1016.9 |
| 20260901012504 | 76 | 37 | 0.0 | 0.0 | 0.00 | 0.00 | 0.00 | 22 | 1017.0 |
| 20260901012003 | 76 | 51 | 0.0 | 0.0 | 0.00 | 0.00 | 0.00 | 22 | 1016.9 |
| 20260901011503 | 77 | 46 | 0.0 | 0.0 | 0.00 | 0.00 | 0.00 | 22 | 1016.9 |
| 20260901011004 | 77 | 65 | 0.0 | 1.0 | 0.00 | 0.00 | 0.00 | 21 | 1016.9 |
| 20260901010504 | 77 | 47 | 0.0 | 1.0 | 0.00 | 0.00 | 0.00 | 21 | 1016.9 |
| 20260901010003 | 77 | 38 | 0.0 | 0.0 | 0.00 | 0.00 | 0.00 | 21 | 1016.9 |
| 20260901005504 | 78 | 17 | 0.0 | 1.0 | 0.00 | 0.00 | 0.00 | 21 | 1016.9 |
| 20260901005004 | 78 | 31 | 0.0 | 0.0 | 0.00 | 0.00 | 0.00 | 20 | 1017.0 |
| 20260901004503 | 78 | 39 | 0.0 | 1.0 | 0.00 | 0.00 | 0.00 | 20 | 1017.0 |
| 20260901004003 | 78 | 37 | 0.0 | 0.0 | 0.00 | 0.00 | 0.00 | 21 | 1017.1 |
| 20260901003504 | 78 | 39 | 0.0 | 3.0 | 0.00 | 0.00 | 0.00 | 21 | 1017.1 |
| 20260901003004 | 78 | 36 | 0.0 | 3.0 | 0.00 | 0.00 | 0.00 | 20 | 1017.1 |
| 20260901002003 | 79 | 42 | 1.0 | 3.0 | 0.00 | 0.00 | 0.00 | 20 | 1017.2 |
| 20260901001504 | 79 | 61 | 0.0 | 1.0 | 0.00 | 0.00 | 0.00 | 20 | 1017.2 |
| 20260901001003 | 80 | 50 | 0.0 | 0.0 | 0.00 | 0.00 | 0.00 | 19 | 1017.3 |
| 20260901000504 | 80 | 14 | 0.0 | 3.0 | 0.00 | 0.00 | 0.00 | 19 | 1017.2 |
| 20260901000004 | 80 | 33 | 0.0 | 1.0 | 0.00 | 0.00 | 0.00 | 19 | 1017.3 |
| 20260831235504 | 80 | 40 | 0.0 | 0.0 | 0.00 | 0.00 | 0.00 | 19 | 1017.4 |
| 20260831235004 | 81 | 55 | 0.0 | 1.0 | 0.00 | 0.00 | 0.00 | 19 | 1017.4 |